When you browse on this site, cookies collect data to enhance your experience and personalize the content and advertising you see.
Visit our Privacy Policy to learn more. By continuing to use the site, you agree to this use of cookies and data.
  • Em Portugal
  • Lista de países
  • Para 7 dias
  • Temperatura da água
  • Mapas de satélite
  • Mapa do tempo
  • Widgets de tempo
  • user-avatar
    Iniciar Sessão

    Previsão horária em Monastyrskoe

    Hoje, 25 Junho, Terça-feira

    Tempo Temperatura Precipitação Vento Pressão Humidade
    00:00 +16°C° 0 mm 3 m/s 752 mmHg 86%
    01:00 +14°C° 0 mm 3 m/s 752 mmHg 85%
    02:00 +13°C° 0 mm 3 m/s 752 mmHg 85%
    03:00 +13°C° 0 mm 3 m/s 753 mmHg 84%
    04:00 +13°C° 0 mm 3 m/s 753 mmHg 81%
    05:00 +14°C° 0 mm 4 m/s 753 mmHg 79%
    06:00 +14°C° 0 mm 4 m/s 753 mmHg 77%
    07:00 +17°C° 0 mm 4 m/s 754 mmHg 72%
    08:00 +17°C° 0 mm 5 m/s 754 mmHg 68%
    09:00 +20°C° 0 mm 5 m/s 754 mmHg 63%
    10:00 +21°C° 0 mm 5 m/s 754 mmHg 60%
    11:00 +21°C° 0 mm 5 m/s 754 mmHg 57%
    12:00 +22°C° 0 mm 4 m/s 754 mmHg 54%
    13:00 +22°C° 0 mm 4 m/s 755 mmHg 54%
    14:00 +22°C° 0 mm 4 m/s 755 mmHg 55%
    15:00 +22°C° 0 mm 4 m/s 755 mmHg 56%
    16:00 +22°C° 0 mm 4 m/s 755 mmHg 60%
    17:00 +21°C° 0 mm 3 m/s 754 mmHg 64%
    18:00 +20°C° 0 mm 3 m/s 754 mmHg 68%
    19:00 +19°C° 0 mm 3 m/s 755 mmHg 71%
    20:00 +17°C° 0 mm 2 m/s 755 mmHg 75%
    21:00 +16°C° 0 mm 2 m/s 755 mmHg 78%
    22:00 +15°C° 0 mm 2 m/s 755 mmHg 80%
    23:00 +14°C° 0 mm 2 m/s 755 mmHg 82%

    Amanhã, 26 Junho, Quarta-feira

    Tempo Temperatura Precipitação Vento Pressão Humidade
    00:00 +14°C° 0 mm 2 m/s 754 mmHg 83%
    01:00 +13°C° 0 mm 2 m/s 755 mmHg 85%
    02:00 +12°C° 0 mm 2 m/s 755 mmHg 87%
    03:00 +12°C° 0 mm 2 m/s 755 mmHg 88%
    04:00 +11°C° 0 mm 3 m/s 755 mmHg 87%
    05:00 +12°C° 0 mm 3 m/s 755 mmHg 85%
    06:00 +12°C° 0 mm 3 m/s 755 mmHg 83%
    07:00 +14°C° 0 mm 3 m/s 755 mmHg 76%
    08:00 +15°C° 0 mm 4 m/s 755 mmHg 70%
    09:00 +18°C° 0 mm 4 m/s 755 mmHg 63%
    10:00 +18°C° 0 mm 4 m/s 755 mmHg 60%
    11:00 +19°C° 0 mm 4 m/s 755 mmHg 58%
    12:00 +20°C° 0 mm 4 m/s 754 mmHg 55%
    13:00 +20°C° 0 mm 4 m/s 754 mmHg 55%
    14:00 +20°C° 0 mm 4 m/s 754 mmHg 54%
    15:00 +20°C° 0 mm 4 m/s 754 mmHg 53%
    16:00 +20°C° 0 mm 3 m/s 753 mmHg 56%
    17:00 +20°C° 0 mm 2 m/s 753 mmHg 59%
    18:00 +19°C° 0 mm 2 m/s 752 mmHg 62%
    19:00 +19°C° 0 mm 1 m/s 752 mmHg 66%
    20:00 +16°C° 0 mm 1 m/s 752 mmHg 70%
    21:00 +14°C° 0 mm 1 m/s 751 mmHg 74%
    22:00 +14°C° 0 mm 1 m/s 751 mmHg 73%
    23:00 +15°C° 0 mm 1 m/s 751 mmHg 72%

    Depois de amanhã, 27 Junho, Quinta-feira

    Tempo Temperatura Precipitação Vento Pressão Humidade
    00:00 +15°C° 0 mm 1 m/s 750 mmHg 71%
    01:00 +14°C° 0.7 mm 2 m/s 750 mmHg 79%
    02:00 +14°C° 0.7 mm 2 m/s 749 mmHg 86%
    03:00 +13°C° 0.7 mm 2 m/s 749 mmHg 94%
    04:00 +13°C° 2.1 mm 2 m/s 748 mmHg 95%
    05:00 +14°C° 2.1 mm 2 m/s 748 mmHg 96%
    06:00 +14°C° 2.1 mm 2 m/s 747 mmHg 98%
    07:00 +14°C° 0.8 mm 2 m/s 747 mmHg 97%
    08:00 +14°C° 0.8 mm 2 m/s 746 mmHg 97%
    09:00 +14°C° 0.8 mm 1 m/s 746 mmHg 97%
    10:00 +15°C° 0.1 mm 2 m/s 746 mmHg 94%
    11:00 +16°C° 0.1 mm 2 m/s 745 mmHg 92%
    12:00 +16°C° 0.1 mm 2 m/s 745 mmHg 90%
    13:00 +16°C° 0.2 mm 2 m/s 744 mmHg 91%
    14:00 +16°C° 0.2 mm 3 m/s 744 mmHg 91%
    15:00 +16°C° 0.2 mm 3 m/s 744 mmHg 92%
    16:00 +16°C° 0.7 mm 3 m/s 743 mmHg 93%
    17:00 +14°C° 0.7 mm 4 m/s 742 mmHg 95%
    18:00 +14°C° 0.7 mm 5 m/s 742 mmHg 96%
    19:00 +14°C° 1.5 mm 5 m/s 741 mmHg 96%
    20:00 +14°C° 1.5 mm 5 m/s 741 mmHg 96%
    21:00 +14°C° 1.5 mm 6 m/s 740 mmHg 96%
    22:00 +15°C° 1.7 mm 6 m/s 739 mmHg 96%
    23:00 +15°C° 1.7 mm 6 m/s 739 mmHg 97%

    28 Junho, Sexta-feira

    Tempo Temperatura Precipitação Vento Pressão Humidade
    00:00 +15°C° 1.7 mm 6 m/s 738 mmHg 97%
    01:00 +16°C° 1.5 mm 7 m/s 737 mmHg 96%
    02:00 +16°C° 1.5 mm 7 m/s 737 mmHg 96%
    03:00 +16°C° 1.5 mm 8 m/s 736 mmHg 96%
    04:00 +16°C° 1.9 mm 7 m/s 735 mmHg 95%
    05:00 +16°C° 1.9 mm 7 m/s 735 mmHg 95%
    06:00 +15°C° 1.9 mm 7 m/s 735 mmHg 95%
    07:00 +16°C° 0.7 mm 7 m/s 734 mmHg 95%
    08:00 +16°C° 0.7 mm 7 m/s 734 mmHg 94%
    09:00 +16°C° 0.7 mm 7 m/s 734 mmHg 94%
    10:00 +16°C° 0.5 mm 7 m/s 734 mmHg 93%
    11:00 +17°C° 0.5 mm 7 m/s 734 mmHg 93%
    12:00 +17°C° 0.5 mm 7 m/s 734 mmHg 93%
    13:00 +17°C° 2.2 mm 6 m/s 734 mmHg 91%
    14:00 +19°C° 2.2 mm 6 m/s 734 mmHg 89%
    15:00 +19°C° 2.2 mm 5 m/s 734 mmHg 87%
    16:00 +19°C° 0.4 mm 4 m/s 734 mmHg 86%
    17:00 +20°C° 0.4 mm 4 m/s 734 mmHg 85%
    18:00 +20°C° 0.4 mm 4 m/s 734 mmHg 84%
    19:00 +18°C° 0 mm 4 m/s 734 mmHg 86%
    20:00 +17°C° 0 mm 4 m/s 734 mmHg 89%
    21:00 +14°C° 0 mm 4 m/s 734 mmHg 91%
    22:00 +14°C° 0 mm 4 m/s 734 mmHg 92%
    23:00 +13°C° 0 mm 4 m/s 734 mmHg 93%

    29 Junho, Sábado

    Tempo Temperatura Precipitação Vento Pressão Humidade
    00:00 +12°C° 0 mm 4 m/s 735 mmHg 93%
    01:00 +12°C° 0 mm 4 m/s 735 mmHg 94%
    02:00 +11°C° 0 mm 4 m/s 735 mmHg 95%
    03:00 +11°C° 0 mm 4 m/s 735 mmHg 96%
    04:00 +10°C° 0 mm 5 m/s 735 mmHg 94%
    05:00 +12°C° 0 mm 5 m/s 735 mmHg 93%
    06:00 +11°C° 0 mm 6 m/s 735 mmHg 91%
    07:00 +13°C° 0.1 mm 6 m/s 736 mmHg 88%
    08:00 +14°C° 0.1 mm 5 m/s 736 mmHg 85%
    09:00 +14°C° 0.1 mm 5 m/s 736 mmHg 83%
    10:00 +15°C° 0.3 mm 5 m/s 737 mmHg 80%
    11:00 +16°C° 0.3 mm 6 m/s 737 mmHg 78%
    12:00 +17°C° 0.3 mm 6 m/s 738 mmHg 76%
    13:00 +17°C° 0.5 mm 5 m/s 738 mmHg 76%
    14:00 +17°C° 0.5 mm 5 m/s 738 mmHg 76%
    15:00 +17°C° 0.5 mm 5 m/s 738 mmHg 76%
    16:00 +18°C° 0.5 mm 4 m/s 738 mmHg 78%
    17:00 +18°C° 0.5 mm 4 m/s 739 mmHg 80%
    18:00 +18°C° 0.5 mm 3 m/s 739 mmHg 81%
    19:00 +16°C° 0.1 mm 3 m/s 739 mmHg 85%
    20:00 +14°C° 0.1 mm 3 m/s 740 mmHg 89%
    21:00 +13°C° 0.1 mm 2 m/s 740 mmHg 93%
    22:00 +11°C° 0 mm 3 m/s 740 mmHg 93%
    23:00 +10°C° 0 mm 3 m/s 740 mmHg 93%

    30 Junho, Domingo

    Tempo Temperatura Precipitação Vento Pressão Humidade
    00:00 +9°C° 0 mm 3 m/s 740 mmHg 93%
    01:00 +9°C° 0 mm 2 m/s 741 mmHg 93%
    02:00 +8°C° 0 mm 2 m/s 741 mmHg 94%
    03:00 +8°C° 0 mm 2 m/s 741 mmHg 95%
    04:00 +8°C° 0 mm 2 m/s 741 mmHg 93%
    05:00 +9°C° 0 mm 2 m/s 741 mmHg 92%
    06:00 +10°C° 0 mm 2 m/s 742 mmHg 91%
    07:00 +11°C° 0 mm 3 m/s 742 mmHg 86%
    08:00 +12°C° 0 mm 3 m/s 742 mmHg 80%
    09:00 +13°C° 0 mm 4 m/s 742 mmHg 75%
    10:00 +14°C° 0 mm 4 m/s 742 mmHg 71%
    11:00 +15°C° 0 mm 4 m/s 743 mmHg 67%
    12:00 +18°C° 0 mm 4 m/s 743 mmHg 64%
    13:00 +18°C° 0 mm 4 m/s 743 mmHg 63%
    14:00 +18°C° 0 mm 4 m/s 743 mmHg 62%
    15:00 +18°C° 0 mm 4 m/s 743 mmHg 62%
    16:00 +18°C° 0 mm 4 m/s 743 mmHg 65%
    17:00 +17°C° 0 mm 3 m/s 743 mmHg 67%
    18:00 +17°C° 0 mm 3 m/s 744 mmHg 70%
    19:00 +14°C° 0 mm 3 m/s 744 mmHg 78%
    20:00 +13°C° 0 mm 2 m/s 744 mmHg 85%
    21:00 +10°C° 0 mm 2 m/s 745 mmHg 92%
    22:00 +10°C° 0 mm 2 m/s 745 mmHg 92%
    23:00 +10°C° 0 mm 1 m/s 745 mmHg 92%
    Mostrar mais